Regional Weather Roundup
Issued by NWS

Home | Current Version | Previous Version | Text Only | Print | Product List | Glossary Off
Versions: 1 2 3 4 5 6 7 8 9 10 11 12 13 14 15 16 17 18 19 20 21 22 23 24 25 26 27 28 29 30 31 32 33 34 35 36 37 38 39 40 41 42 43 44 45 46 47 48 49 50

000
ASUS43 KOAX 061602
RWRNE

WEATHER ROUNDUP FOR NEBRASKA
NATIONAL WEATHER SERVICE OMAHA NE
1100 AM CDT WED MAY 06 2015

NOTES: SATELLITE DATA IS BEING USED TO AUGMENT CLOUD COVER ABOVE
       12000 FEET.
       "FAIR" INDICATES FEW OR NO CLOUDS BELOW 12,000 FEET WITH NO
       SIGNIFICANT WEATHER AND/OR OBSTRUCTIONS TO VISIBILITY.

  * THESE STATIONS DO NOT REPORT WEATHER SUCH AS RAIN...SNOW OR FOG.

NEZ001>004-019>022-054>056-061700-
NEBRASKA PANHANDLE

CITY           SKY/WX    TMP DP  RH WIND       PRES   REMARKS
SCOTTSBLUFF    CLOUDY    57  52  83 SE8       29.67F
ALLIANCE       CLOUDY    56  52  86 SE12      29.68S
CHADRON        CLOUDY    58  52  80 S8        29.67F
KIMBALL        CLOUDY    53  52  97 NE7       29.66S FOG
SIDNEY         CLOUDY    53  52  96 SE15      29.66S FOG
$$

NEZ057>060-069>072-079>082-061700-
SOUTHWEST NEBRASKA

CITY           SKY/WX    TMP DP  RH WIND       PRES   REMARKS
NORTH PLATTE   CLOUDY    62  57  83 SE8       29.69S
IMPERIAL       CLOUDY    58  51  78 SE8       29.67F
MCCOOK         CLOUDY    63  55  75 S14       29.68S
$$

NEZ005>010-023>029-035>040-094-061700-
NORTH CENTRAL NEBRASKA

CITY           SKY/WX    TMP DP  RH WIND       PRES   REMARKS
VALENTINE      CLOUDY    63  58  83 SE14      29.70F
AINSWORTH      CLOUDY    63  58  84 SE13      29.71S
BROKEN BOW     LGT RAIN  62  59  90 S15       29.71S
ORD            LGT RAIN  61  58  90 SE10      29.72S
$$

NEZ041-046>049-061>064-073>077-083>087-061700-
SOUTH CENTRAL NEBRASKA

CITY           SKY/WX    TMP DP  RH WIND       PRES   REMARKS
GRAND ISLAND   LGT RAIN  61  59  93 S13G26    29.77R
AURORA         CLOUDY    62  62 100 S18       29.78R
HASTINGS       CLOUDY    63  57  81 S20G25    29.76S
KEARNEY *      CLOUDY    63  57  82 S21G26    29.74S
$$

NEZ011>018-030>034-042>045-061700-
NORTHEAST NEBRASKA

CITY           SKY/WX    TMP DP  RH WIND       PRES   REMARKS
NORFOLK        LGT RAIN  62  60  93 S18G26    29.78R FOG
COLUMBUS *     CLOUDY    63  55  77 S13G18    29.81R
TEKAMAH        CLOUDY    66  61  84 SE21      29.83S
$$

NEZ050>053-065>068-078-088>093-061700-
SOUTHEAST NEBRASKA

CITY           SKY/WX    TMP DP  RH WIND       PRES   REMARKS
LINCOLN        PTSUNNY   68  61  78 S22G28    29.82S
OMAHA EPPLEY   CLOUDY    68  60  75 S24G31    29.85S
FALLS CITY     CLOUDY    70  60  70 S17G26    29.89R
NEBRASKA CITY  CLOUDY    67  60  76 S23       29.88R
PLATTSMOUTH    CLOUDY    67  60  77 S17       29.86S
$$

NEZ044-045-051>053-067-061700-
OMAHA AREA

CITY           SKY/WX    TMP DP  RH WIND       PRES   REMARKS
OMAHA EPPLEY   CLOUDY    68  60  75 S24G31    29.85S
OFFUTT AFB     CLOUDY    68  61  76 SE22      29.85R
PLATTSMOUTH    CLOUDY    67  60  77 S17       29.86S
$$


USA.gov is the U.S. government's official web portal to all federal, state and local government web resources and services.